Torna al catalogo

STARLINK-1167

AttivoComunicazioniVLEO
NORAD 45071·PAYLOAD·🇺🇸 United States

Lanciato Jan 29, 2020 da Cape Canaveral Space Force Station

Loading…

Prossimi Passaggi (prossime 24 ore)

TLE

AggiornatoSource: CelesTrak SupGP

Epoca: Sep 14, 2026, 12:43 UTC

1 45071C 20006AD  26257.53034722  .00038105  00000+0  77594-3 0  2571
2 45071  53.1510  90.4949 0003258 170.5112 359.2990 15.45644126    10

Traccia STARLINK-1167 in tempo reale con AllMySat

Download on the App Store